TimeAST,TemperatureF,Dew PointF,Humidity,Sea Level PressureIn,VisibilityMPH,Wind Direction,Wind SpeedMPH,Gust SpeedMPH,PrecipitationIn,Events,Conditions,WindDirDegrees,DateUTC
12:58 AM,-22.2,-29.4,69,30.25,6.2,East,10.4,-,N/A,,Clear,100,2013-02-23 04:58:00
1:58 AM,-20.7,-28.3,68,30.25,6.2,East,6.9,-,N/A,,Clear,90,2013-02-23 05:58:00
2:58 AM,-20.0,-27.8,68,30.25,6.2,East,11.5,-,N/A,,Clear,80,2013-02-23 06:58:00
3:58 AM,-20.4,-28.8,65,30.24,6.2,East,6.9,-,N/A,,Clear,80,2013-02-23 07:58:00
4:58 AM,-22.0,-29.6,68,30.23,6.2,East,8.1,-,N/A,,Clear,90,2013-02-23 08:58:00
5:58 AM,-21.5,-29.0,68,30.22,6.2,East,9.2,-,N/A,,Clear,100,2013-02-23 09:58:00
6:58 AM,-21.5,-29.2,67,30.21,6.2,East,9.2,-,N/A,,Clear,90,2013-02-23 10:58:00
7:58 AM,-22.0,-29.4,69,30.19,6.2,East,6.9,-,N/A,,Clear,80,2013-02-23 11:58:00
8:58 AM,-21.5,-28.5,70,30.17,6.2,East,6.9,-,N/A,,Clear,90,2013-02-23 12:58:00
9:58 AM,-20.9,-28.1,69,30.15,6.2,East,8.1,-,N/A,,Clear,100,2013-02-23 13:58:00
10:58 AM,-22.4,-29.6,69,30.13,6.2,East,5.8,-,N/A,,Clear,100,2013-02-23 14:58:00
11:58 AM,-21.8,-29.0,69,30.10,6.2,East,8.1,-,N/A,,Clear,90,2013-02-23 15:58:00
12:58 PM,-19.7,-26.5,71,30.08,6.2,East,8.1,-,N/A,,Clear,90,2013-02-23 16:58:00
1:58 PM,-20.7,-27.8,70,30.05,6.2,East,8.1,-,N/A,,Clear,90,2013-02-23 17:58:00
2:58 PM,-25.6,-29.9,80,30.04,6.2,East,12.7,-,N/A,,Clear,80,2013-02-23 18:58:00
3:58 PM,-23.8,-29.9,73,30.02,6.2,East,11.5,-,N/A,,Clear,90,2013-02-23 19:58:00
4:58 PM,-22.7,-29.6,70,30.01,6.2,East,13.8,-,N/A,,Clear,90,2013-02-23 20:58:00
5:58 PM,-24.0,-29.9,74,30.00,6.2,East,12.7,-,N/A,,Clear,90,2013-02-23 21:58:00
6:58 PM,-23.1,-29.9,70,30.00,6.2,East,13.8,-,N/A,,Clear,100,2013-02-23 22:58:00
7:58 PM,-22.0,-29.0,70,29.99,6.2,East,12.7,-,N/A,,Clear,90,2013-02-23 23:58:00
8:58 PM,-22.2,-29.4,69,29.99,6.2,East,11.5,-,N/A,,Clear,90,2013-02-24 00:58:00
9:58 PM,-20.9,-28.3,69,29.99,6.2,East,10.4,-,N/A,,Clear,100,2013-02-24 01:58:00
10:58 PM,-20.6,-28.8,66,30.00,6.2,East,12.7,-,N/A,,Clear,90,2013-02-24 02:58:00
11:58 PM,-19.8,-27.8,67,30.01,6.2,ENE,3.5,-,N/A,,Clear,70,2013-02-24 03:58:00